This is the latest recevied weather packets stored in our database for station/object BMCB-30. If no packets are shown the sender has not sent any weather packets the latest 10 day(s).
| Time | Temp. | Humidity | Pressure | Rain* | Wind** | Luminosity | Snow |
|---|---|---|---|---|---|---|---|
| 1778067647 | 10° C | 99% | 1010 hPa | 0 mm | - | 286 W/m² | - |
| 1778067050 | 10° C | 10% | 1010 hPa | 0.25 mm | - | - | - |
| 1778059845 | 8.89° C | 10% | 1009.9 hPa | 1.02 mm | - | - | - |
| 1778059247 | 8.89° C | 10% | 1009.8 hPa | 1.27 mm | - | - | - |
| 1778058647 | 8.89° C | 10% | 1009.7 hPa | 1.27 mm | - | - | - |
| 1778058047 | 8.89° C | 10% | 1009.8 hPa | 1.02 mm | - | - | - |
| 1778053246 | 7.78° C | 10% | 1009.2 hPa | 0.51 mm | - | - | - |
| 1778051445 | 7.78° C | 10% | 1009 hPa | 0.76 mm | - | - | - |
| 1778040645 | 7.78° C | 10% | 1008.4 hPa | 1.02 mm | - | - | - |
| 1778035845 | 8.33° C | 10% | 1008.5 hPa | 1.02 mm | - | - | - |
| 1778019649 | 9.44° C | 10% | 1009.5 hPa | 1.02 mm | - | - | - |
| 1778019050 | 9.44° C | 10% | 1009.5 hPa | 0.76 mm | - | - | - |
| 1778018448 | 9.44° C | 10% | 1009.5 hPa | 0.51 mm | - | - | - |
| 1778016649 | 9.44° C | 10% | 1009.7 hPa | 0.51 mm | - | - | - |
| 1778015447 | 9.44° C | 10% | 1009.7 hPa | 0.51 mm | - | - | - |
| 1778014249 | 10° C | 10% | 1009.7 hPa | 0.51 mm | - | - | - |
| 1778013046 | 10° C | 10% | 1009.8 hPa | 0.51 mm | - | - | - |
| 1778012451 | 10° C | 10% | 1009.7 hPa | 0.76 mm | - | - | - |
| 1778011248 | 10° C | 10% | 1009.6 hPa | 1.02 mm | - | - | - |
| 1778008247 | 10° C | 10% | 1009.3 hPa | 1.27 mm | - | - | - |
| 1778007648 | 10° C | 10% | 1009.3 hPa | 1.02 mm | - | - | - |
| 1778002247 | 10.56° C | 99% | 1009.3 hPa | 0.76 mm | - | 20 W/m² | - |
| 1778001642 | 10.56° C | 99% | 1009.3 hPa | 0.51 mm | - | 28 W/m² | - |
| 1777999848 | 10.56° C | 99% | 1009.4 hPa | 0.51 mm | - | 30 W/m² | - |
| 1777992044 | 11.67° C | 94% | 1009.6 hPa | 0 mm | - | 66 W/m² | - |
* Rain latest hour (hover to see other rain measurements)
** Current wind speed in m/s (hover to see current wind gust speed)